Dewpoint
-2 -4 -6 -6 -11 -8 -4 -0 0 -2 -2 -1 1 4 -0 -2 -4 -4 -3 -2 -2 -2 -3 -2 -1 -1 -3 -5 -5 -4 -4 -2 -2 -3 -5 -6 -5 -4 -3 3 3 3 4 1
-2 -4 -5 -6 -11 -8 -1 -0 -0 -0 -2 3 1 -1 -2 -3 -4 -4 -4 -2 -2 -3 -3 -2 -2 -1 -3 -5 -5 -3 -4 -2 -2 -6 -6 -3 -3 -3 -3 -0 2 -1 3 -1
-1 -4 -4 -7 -13 -5 -1 -0 2 0 -0 -2 -1 -0 -3 -3 -2 -4 -5 -3 -4 -4 -3 -4 -2 -2 -2 -4 -5 -2 -2 -4 -5 -3 -6 -2 -1 -1 -2 -2 2 -1 -3 -4
-1 -3 -4 -9 -12 -4 -2 -1 1 -2 2 1 -2 -4 -4 -4 -2 -2 -3 -4 -5 -5 -2 -3 -2 -3 -3 -3 -3 -2 -2 -2 -3 -3 -4 -5 -4 -6 -5 -3 -3 -1 -3 -5
-1 -2 -5 -12 -8 -3 -1 -2 -0 -1 -4 -4 -3 -2 -3 -5 -3 -3 -2 -4 -3 -3 -2 -3 -1 -2 -3 -3 -3 -2 -2 -2 -2 -1 -4 -4 -3 -5 -5 -5 -6 -7 -8 -7
-0 -1 -7 -13 -7 -3 -1 -4 -3 -1 -2 -3 -2 -2 -3 -4 -5 -2 -3 -3 -2 -2 -2 -3 -3 -2 -2 -3 -3 -2 -2 -2 -2 -1 -5 -4 -1 -4 -5 -5 -6 -6 -4 -7
0 -3 -9 -13 -10 -3 -3 -4 -1 -2 0 -2 -2 -3 -3 -3 -4 -3 -3 -4 -4 -2 -3 -4 -4 -4 -5 -5 -4 -3 -2 -2 -1 1 -2 1 -5 -7 -9 -8 -8 -8 -8 -8
-0 -3 -9 -13 -12 -4 -4 -4 -3 -3 0 -4 -4 -4 -4 -3 -4 -4 -4 -5 -6 -3 -5 -5 -1 -1 -0 -1 -5 -5 -3 -1 1 1 -0 -4 -6 -7 -7 -6 -6 -10 -10 -10
-0 -2 -7 -12 -11 -5 -4 -4 -5 -6 -3 -2 -6 -5 -6 -5 -6 -5 -6 -5 -3 -4 -5 -3 -3 -3 -2 -2 -1 -1 -2 -1 1 1 2 -1 -4 -7 -8 -9 -6 -10 -10 -9
-0 -2 -8 -11 -10 -6 -4 -4 -5 -5 -4 -7 -5 -7 -6 -7 -6 -6 -6 -3 -2 -3 -3 -1 -1 -1 -5 -4 -4 2 1 1 2 2 2 -2 -8 -8 -7 -3 -5 -8 -6 -6
-0 -3 -9 -10 -11 -10 -6 -6 -9 -7 -6 -5 -6 -5 -5 -5 -6 -5 -1 -1 -1 -1 -1 -1 -2 -1 -4 -5 -9 -8 -1 0 1 0 2 0 -9 -8 -5 -6 -5 -6 -6 -6
-0 -2 -5 -7 -8 -9 -9 -10 -11 -11 -6 -4 -9 -5 -4 -6 -6 -7 -5 -4 -3 -3 -1 -1 -2 -1 -2 -4 -2 -6 -2 -4 -3 -3 -4 -8 -8 -7 -7 -6 -6 -5 -5 -5
-2 -1 -1 -5 -6 -6 -8 -9 -9 -9 -6 -5 -3 -5 -7 -9 -9 -5 -4 -4 -4 -3 -0 -2 -1 1 -2 -1 -1 -3 -5 -6 -2 -3 -6 -7 -6 -6 -6 -5 -5 -5 -4 -4
-2 -1 -1 -3 -4 -6 -7 -6 -8 -8 -7 -3 -4 -9 -9 -11 -10 -7 -4 -6 -3 -3 -3 -2 -1 -1 -4 -3 -4 -4 -5 -5 -4 -3 -5 -5 -6 -5 -5 -4 -4 -3 -3 -3
-1 -1 -1 -2 -3 -3 -5 -5 -7 -8 -5 -4 -4 -6 -10 -5 -4 -5 -4 -3 -4 -2 -1 -0 -0 -3 -2 -3 -3 -1 -5 -4 -2 -2 -5 -5 -5 -4 -3 -3 -2 -2 -2 -2
-1 -1 -1 -2 -2 -2 -3 -5 -6 -5 -5 -5 -3 -5 -5 -2 -2 -2 -2 -3 -3 -2 -2 -2 -2 -3 -2 1 -1 -5 -6 -6 -5 -5 -5 -4 -3 -2 -2 -2 -2 -2 -3 -3
-2 -2 -2 -2 -2 -3 -4 -3 -5 -4 -3 -4 -4 -2 -1 -1 -1 -1 -1 -1 -1 -2 -2 -1 -2 -2 -1 1 0 -5 -5 -6 -5 -3 -2 -2 -3 -2 -2 -3 -3 -3 -3 -3
-3 -2 -2 -2 -3 -3 -3 -3 -5 -4 -4 -5 -3 -3 -1 -1 -1 -1 -1 -1 -1 -1 -1 -1 -0 -2 0 1 -5 -5 -4 -2 -2 -2 -2 -2 -3 -3 -4 -4 -4 -4 -5 -5
-4 -3 -3 -3 -3 -3 -3 -4 -4 -5 -3 -4 -4 -4 -1 -0 -0 -0 -1 -1 -0 -1 -1 -0 0 -0 2 -2 -4 -3 -1 -2 -2 -2 -3 -4 -4 -4 -4 -5 -5 -5 -6 -6
-5 -4 -5 -4 -5 -4 -4 -3 -3 -4 -4 -3 -4 -6 -2 -0 0 -0 -0 -1 2 1 -0 0 1 -2 -5 -5 -4 -2 -2 -2 -3 -3 -4 -4 -4 -5 -5 -6 -6 -6 -6 -6
-6 -5 -5 -4 -4 -4 -3 -3 -3 -3 -3 -5 -5 -7 -6 -2 -2 -0 -0 1 -0 0 -1 -0 -2 -2 -4 -2 -2 -2 -3 -4 -4 -4 -4 -5 -6 -6 -6 -6 -7 -7 -7 -8
-6 -5 -5 -3 -4 -3 -3 -3 -3 -1 -4 -3 -4 -4 -7 -6 -2 -1 -0 0 -1 -1 -3 -0 -1 -3 -2 -2 -3 -3 -4 -4 -4 -5 -5 -6 -7 -7 -7 -7 -8 -7 -7 -7
-5 -5 -4 -4 -4 -3 -2 -2 -3 -2 -1 -1 -0 -0 -4 -1 -0 0 0 1 0 -3 -0 -2 -3 -2 -2 -3 -3 -4 -4 -5 -5 -5 -6 -7 -7 -7 -6 -6 -6 -6 -6 -6
-6 -4 -4 -4 -4 -6 -6 -6 -5 -3 -1 -1 -1 -0 -0 -0 -0 1 1 -1 -1 0 -0 -1 -3 -3 -3 -3 -4 -4 -5 -5 -5 -6 -7 -7 -6 -6 -6 -6 -6 -7 -7 -6
-5 -4 -5 -4 -7 -5 -4 -3 -3 -2 -1 -1 -0 0 0 1 2 1 1 0 0 -1 -0 -2 -2 -2 -3 -4 -4 -5 -5 -6 -6 -6 -6 -6 -6 -6 -6 -6 -6 -7 -7 -8
-6 -6 -5 -5 -4 -3 -3 -2 -1 -1 -1 -1 0 2 1 2 1 0 0 -1 -1 -1 -1 -2 -2 -3 -4 -4 -5 -5 -6 -6 -6 -6 -6 -6 -6 -7 -8 -9 -9 -9 -10 -10
-7 -7 -6 -5 -4 -3 -4 -2 -2 -1 0 1 1 2 0 -1 0 -1 -2 -0 -2 -2 -2 -2 -2 -3 -4 -5 -5 -6 -5 -5 -6 -6 -7 -8 -9 -9 -9 -10 -10 -10 -12 -15
Wind_Speed
17 14 13 11 10 9 8 5 2 7 12 5 1 3 4 2 3 4 3 4 5 4 3 4 4 5 5 5 5 3 6 2 3 2 2 3 4 2 5 5 7 6 8 17
18 16 14 12 11 11 10 5 4 5 5 3 3 4 5 2 4 3 2 3 3 2 3 3 5 6 6 8 6 4 4 1 2 5 5 4 5 5 6 4 3 14 12 10
19 17 15 13 14 15 9 5 3 2 1 2 8 8 8 5 2 2 2 5 2 3 3 4 6 8 4 5 4 2 3 3 5 6 7 4 4 7 7 9 9 13 19 30
20 17 15 15 18 19 8 2 2 5 4 4 7 7 8 9 4 2 3 3 2 3 3 3 4 3 3 5 2 3 1 5 6 10 11 12 14 15 16 19 19 20 21 28
21 18 16 16 20 20 6 5 5 3 6 9 9 5 6 10 6 7 5 3 6 4 3 2 7 4 2 1 3 2 1 3 6 9 12 15 19 19 23 25 25 26 26 32
20 19 17 18 22 21 6 5 10 6 5 9 6 6 8 8 10 3 3 6 4 4 3 2 1 2 5 6 5 3 3 3 3 5 4 9 13 22 23 21 21 19 20 24
21 20 19 19 21 22 8 9 8 4 6 8 6 8 7 9 6 4 7 5 2 4 6 2 5 9 13 15 15 14 6 7 3 5 8 7 1 4 3 12 12 14 21 23
20 20 19 19 19 22 15 11 4 2 4 8 8 10 8 7 3 3 3 3 2 8 4 2 3 2 3 7 17 15 17 10 3 4 8 14 18 12 16 11 10 16 20 20
22 21 19 18 19 20 17 11 9 2 4 6 6 11 10 5 4 3 3 2 4 7 4 3 3 3 1 3 6 2 11 13 6 5 5 5 6 6 8 11 14 11 11 16
25 21 19 19 19 19 16 14 9 3 2 1 8 6 7 6 5 3 4 5 5 7 4 4 4 3 2 4 4 5 5 3 10 10 8 10 10 9 4 7 12 14 18 22
24 22 20 19 19 18 18 16 12 7 2 3 6 7 6 6 7 4 6 5 3 5 5 4 3 4 5 4 5 2 7 6 5 6 7 11 4 1 7 13 25 31 35 34
24 24 22 20 19 18 16 14 13 12 5 3 8 11 11 10 8 6 7 1 5 6 4 2 1 4 3 5 3 4 5 9 3 7 6 14 22 28 29 30 31 33 32 33
21 23 24 23 20 18 16 13 13 12 5 10 10 13 15 19 20 15 6 6 5 5 1 1 1 5 3 4 6 9 11 15 9 11 15 21 28 34 35 29 26 31 32 35
24 22 23 24 21 19 15 14 13 12 2 2 2 3 6 8 11 21 22 11 3 3 4 5 3 4 5 5 5 10 12 10 13 17 23 25 20 21 30 34 33 36 37 32
26 29 28 27 24 18 15 13 12 12 4 2 5 12 8 10 15 15 21 20 16 5 3 4 4 5 4 10 9 12 19 17 12 12 16 23 29 33 32 33 31 29 34 39
28 26 29 26 22 19 15 7 16 14 11 2 3 4 4 4 9 13 15 17 16 12 6 5 7 12 4 3 8 14 13 15 16 20 25 30 31 30 24 31 32 31 33 34
23 28 29 25 24 20 10 2 5 11 10 2 4 3 2 2 8 9 9 16 10 11 6 6 8 7 8 3 14 23 24 24 27 19 19 22 22 29 27 28 31 29 28 28
27 25 28 25 22 19 12 6 10 11 7 2 2 3 3 6 5 5 10 9 13 10 7 4 5 7 6 6 11 9 7 8 12 11 16 18 21 23 24 24 24 26 25 26
21 24 26 26 21 9 8 6 2 4 1 2 3 3 1 7 5 5 8 8 4 7 6 5 7 5 7 11 13 12 5 6 11 14 15 16 17 18 20 21 23 23 24 24
18 16 7 5 9 11 11 8 9 6 5 6 6 10 4 7 7 6 5 5 2 3 6 7 4 8 24 19 12 5 5 5 9 12 12 12 12 15 16 16 16 17 20 20
15 8 5 9 17 11 6 6 8 9 6 8 9 22 11 9 5 4 6 2 3 3 4 4 3 4 3 2 3 0 3 5 5 4 5 7 9 11 12 14 15 17 18 19
13 10 13 14 6 6 5 5 6 6 7 7 6 10 17 10 7 6 5 3 3 4 8 3 4 3 6 5 2 2 3 4 4 6 6 8 10 10 12 13 15 18 20 24
14 7 6 7 6 8 6 10 5 5 6 10 10 5 11 5 7 4 4 6 5 6 4 4 4 6 8 5 3 3 4 6 7 8 9 12 14 15 17 18 20 23 24 25
5 6 7 6 6 6 6 7 5 6 6 14 17 9 6 7 5 3 4 4 4 5 5 5 3 11 10 6 5 6 7 9 10 11 13 16 16 18 18 20 20 20 22 22
3 4 6 7 9 7 6 6 5 3 8 15 11 4 6 3 4 4 3 5 5 5 4 2 8 13 11 9 9 10 11 13 12 13 15 16 16 16 16 16 15 16 17 17
3 5 4 6 5 8 6 5 6 6 10 13 6 3 4 5 3 6 8 4 6 3 4 9 14 13 11 12 12 13 16 16 14 14 13 13 12 12 13 13 13 13 14 15
4 6 10 10 6 5 5 4 5 7 11 3 4 5 6 4 4 5 5 5 2 7 9 11 11 12 14 14 16 20 20 16 15 13 11 10 10 12 11 12 12 11 12 13
Wind_Direction
180 179 173 176 177 169 156 147 147 158 147 148 110 167 172 161 119 80 88 75 74 79 75 88 105 121 74 21 352 43 23 1 189 149 142 281 271 246 258 244 212 233 288 269
181 182 179 178 174 167 149 118 87 140 127 150 159 168 145 135 168 65 93 101 52 94 87 122 110 119 88 32 36 43 6 251 203 185 180 184 233 230 252 259 258 250 256 255
184 185 180 175 174 169 156 139 123 70 89 141 164 171 174 144 90 110 76 119 113 135 103 47 126 119 89 40 17 345 239 218 256 267 357 333 228 211 223 240 249 259 249 274
187 186 178 178 174 172 156 103 124 162 167 199 178 188 185 173 152 144 155 161 209 183 154 139 134 127 120 70 43 142 265 263 254 265 270 266 266 262 255 251 251 254 270 274
188 185 180 183 175 177 163 136 145 138 154 166 169 161 183 185 144 171 164 181 144 156 154 67 142 139 178 219 133 106 65 270 292 278 271 266 266 260 253 252 256 263 268 274
187 189 185 183 179 178 175 158 152 158 164 161 177 186 168 160 161 98 109 139 152 162 136 140 110 258 260 262 253 233 254 247 269 259 268 288 278 248 245 254 253 256 261 269
188 184 186 180 185 187 178 169 154 152 158 175 190 166 164 168 176 137 130 121 161 120 132 300 259 253 253 250 242 232 237 227 255 277 290 242 17 11 247 241 249 252 261 274
187 187 183 181 185 193 192 176 151 115 134 166 150 155 163 158 147 163 192 204 217 177 237 252 262 205 254 251 238 233 224 239 248 259 247 281 278 250 241 263 267 269 282 284
188 187 184 183 185 191 194 194 202 101 124 197 151 172 183 178 191 177 194 153 179 176 186 183 230 205 221 191 162 243 213 223 217 221 267 271 68 120 345 302 285 264 287 308
185 186 186 184 183 186 187 187 192 155 130 188 177 182 190 179 174 145 164 161 148 179 182 192 205 212 260 218 209 178 159 183 230 243 258 268 271 280 239 289 294 327 327 320
184 185 184 182 183 185 191 199 206 191 195 242 206 200 171 167 190 180 146 157 173 185 201 206 184 232 203 242 244 187 185 199 207 213 242 265 248 133 227 312 312 305 302 300
180 184 184 185 183 184 189 196 201 211 214 248 238 231 227 223 224 214 189 55 167 166 204 225 175 209 217 243 251 179 246 223 253 223 256 267 297 301 294 298 302 304 301 302
192 186 186 187 187 188 192 196 202 206 237 271 258 252 254 243 238 222 209 205 189 183 58 111 27 254 233 231 228 260 254 258 255 287 260 284 296 299 298 298 300 304 301 300
190 185 187 187 188 192 191 198 206 202 173 264 267 234 245 225 225 229 222 218 196 209 226 228 242 245 238 266 284 267 270 294 266 270 285 293 294 302 307 307 306 305 305 304
189 191 189 187 187 184 191 206 213 216 201 296 282 289 279 255 240 232 216 218 214 200 182 199 232 256 255 256 271 266 260 259 256 268 285 304 302 306 307 305 309 311 308 307
179 186 175 172 174 179 183 216 229 219 212 304 290 291 289 291 204 198 199 198 206 208 204 233 248 241 255 256 259 268 279 261 256 276 295 300 300 303 310 312 311 312 309 306
162 166 167 173 172 177 173 198 224 190 172 202 286 270 204 101 146 172 182 189 188 200 208 230 237 232 206 252 260 270 279 276 289 296 304 303 310 312 315 315 315 317 316 316
152 153 160 163 169 179 155 146 64 151 142 183 273 273 243 185 154 154 177 180 197 210 217 228 213 238 214 255 267 273 289 283 287 300 307 305 311 317 322 325 329 332 335 335
126 139 145 154 172 177 186 208 210 200 203 253 212 255 179 182 162 155 169 177 183 205 218 205 194 211 225 247 270 282 282 296 306 314 316 322 328 327 333 341 347 350 349 350
149 137 120 158 158 138 144 139 179 196 236 228 241 222 242 183 173 175 172 184 220 203 205 175 232 254 255 258 270 270 292 322 330 329 335 337 339 346 355 359 358 1 1 5
152 152 147 144 144 153 169 191 193 180 198 234 228 214 215 208 209 193 211 187 193 237 152 214 247 260 234 156 148 44 351 351 355 356 356 2 5 9 14 22 25 29 30 31
162 147 137 142 171 181 200 200 192 196 213 196 207 198 204 203 198 200 189 215 200 239 147 212 247 239 158 163 147 48 22 44 50 48 52 50 50 48 46 44 49 61 67 69
150 149 151 158 177 222 222 182 187 202 195 184 170 134 158 149 179 191 185 211 214 139 207 229 239 156 165 160 140 105 87 92 91 86 84 81 81 83 81 77 76 80 78 76
187 171 176 210 180 227 202 217 187 188 191 169 166 147 160 173 168 182 216 189 146 217 224 230 205 181 166 158 151 146 125 115 113 109 106 102 101 96 92 89 86 83 80 75
228 212 212 210 231 238 226 241 239 179 163 159 152 158 187 166 208 199 168 182 225 225 227 183 155 158 162 158 154 147 139 134 127 124 122 120 116 110 103 96 90 84 82 77
239 234 255 224 241 235 234 256 231 181 176 168 180 164 191 209 206 188 206 210 215 217 201 159 154 155 159 156 156 151 148 144 143 141 134 125 121 115 106 104 97 90 85 78
233 232 236 255 298 269 233 232 234 195 180 200 200 214 195 133 197 207 200 214 221 172 149 154 163 164 160 156 155 154 154 154 151 147 145 137 129 122 119 109 96 88 77 69
Height
1479 1482 1485 1489 1491 1493 1495 1498 1500 1500 1502 1506 1508 1507 1504 1507 1506 1505 1505 1503 1503 1502 1502 1501 1504 1508 1512 1517 1513 1510 1513 1507 1502 1500 1506 1509 1507 1503 1504 1504 1502 1502 1500 1473
1477 1481 1484 1488 1490 1492 1495 1499 1501 1502 1502 1504 1509 1507 1506 1507 1506 1507 1506 1506 1507 1507 1506 1507 1509 1513 1520 1519 1517 1516 1517 1513 1508 1502 1507 1508 1505 1505 1504 1506 1511 1504 1506 1474
1476 1480 1484 1486 1489 1492 1495 1498 1502 1504 1504 1504 1503 1505 1503 1506 1509 1508 1508 1508 1509 1508 1509 1510 1511 1514 1521 1521 1520 1522 1523 1514 1508 1504 1503 1509 1507 1506 1505 1503 1505 1499 1485 1469
1475 1479 1482 1484 1487 1491 1495 1497 1500 1499 1503 1504 1503 1503 1503 1503 1506 1510 1510 1510 1510 1509 1509 1511 1512 1517 1519 1522 1523 1521 1519 1512 1512 1511 1511 1511 1509 1506 1505 1502 1498 1497 1487 1475
1473 1478 1480 1484 1487 1491 1495 1496 1498 1500 1499 1502 1503 1505 1503 1502 1507 1507 1509 1508 1512 1512 1513 1513 1515 1518 1520 1519 1522 1520 1522 1517 1516 1514 1511 1510 1507 1504 1500 1496 1494 1489 1486 1472
1472 1476 1479 1483 1486 1490 1494 1494 1495 1497 1503 1503 1502 1503 1504 1503 1506 1512 1511 1511 1513 1515 1518 1520 1522 1523 1523 1522 1521 1520 1522 1518 1519 1514 1507 1507 1504 1489 1488 1489 1488 1487 1484 1472
1470 1475 1478 1481 1484 1488 1492 1493 1496 1497 1500 1502 1500 1503 1504 1505 1507 1509 1514 1515 1515 1520 1521 1522 1521 1521 1520 1519 1519 1521 1518 1518 1521 1516 1510 1509 1481 1483 1481 1479 1482 1482 1477 1474
1469 1473 1477 1479 1483 1487 1492 1493 1495 1496 1498 1498 1503 1504 1505 1508 1511 1513 1514 1517 1518 1520 1522 1521 1521 1518 1519 1512 1511 1513 1517 1517 1520 1515 1500 1487 1480 1477 1480 1483 1482 1477 1472 1469
1468 1472 1475 1479 1482 1487 1491 1493 1495 1496 1499 1500 1501 1504 1506 1506 1509 1513 1514 1517 1517 1519 1518 1519 1516 1507 1508 1508 1505 1510 1511 1517 1520 1513 1510 1493 1478 1479 1482 1481 1475 1468 1469 1467
1466 1470 1474 1478 1481 1486 1490 1492 1495 1498 1499 1501 1503 1503 1505 1507 1508 1508 1513 1514 1516 1518 1515 1516 1514 1510 1508 1502 1499 1511 1515 1520 1517 1513 1508 1484 1476 1479 1483 1486 1473 1469 1471 1471
1464 1469 1474 1477 1481 1485 1489 1492 1494 1497 1498 1499 1500 1503 1504 1506 1507 1506 1512 1514 1515 1517 1515 1514 1512 1509 1504 1501 1495 1494 1504 1506 1506 1508 1505 1494 1475 1478 1482 1473 1470 1471 1470 1467
1462 1468 1473 1477 1481 1484 1488 1492 1493 1495 1498 1499 1498 1500 1502 1504 1506 1506 1508 1508 1508 1509 1510 1511 1508 1507 1503 1498 1496 1495 1499 1490 1488 1488 1475 1471 1474 1473 1475 1475 1470 1467 1464 1459
1461 1467 1471 1476 1480 1483 1487 1491 1493 1494 1496 1497 1497 1496 1498 1498 1499 1504 1507 1508 1509 1510 1510 1511 1511 1508 1503 1499 1499 1495 1488 1490 1488 1486 1472 1474 1474 1472 1469 1469 1466 1462 1459 1454
1460 1465 1470 1474 1479 1482 1487 1490 1491 1494 1496 1497 1494 1491 1493 1494 1494 1497 1501 1506 1507 1509 1510 1511 1511 1507 1502 1495 1493 1489 1487 1487 1481 1476 1474 1473 1471 1468 1465 1462 1460 1455 1449 1447
1457 1462 1468 1473 1477 1481 1486 1488 1490 1492 1498 1496 1493 1491 1489 1489 1491 1493 1497 1501 1506 1508 1510 1510 1508 1503 1503 1499 1496 1485 1483 1478 1476 1471 1471 1470 1468 1465 1463 1458 1454 1451 1446 1436
1454 1459 1465 1471 1476 1481 1486 1489 1489 1490 1493 1497 1492 1489 1486 1487 1487 1491 1494 1499 1503 1506 1507 1507 1502 1500 1502 1496 1480 1475 1474 1472 1473 1472 1471 1468 1463 1461 1457 1453 1450 1446 1442 1435
1454 1459 1465 1471 1476 1481 1485 1487 1486 1486 1492 1496 1492 1485 1486 1484 1487 1490 1493 1496 1499 1502 1504 1501 1498 1498 1499 1491 1473 1473 1472 1470 1470 1469 1468 1465 1461 1457 1454 1449 1444 1439 1434 1428
1455 1460 1466 1472 1477 1481 1484 1485 1486 1488 1492 1493 1492 1485 1484 1484 1485 1488 1491 1493 1496 1497 1496 1494 1492 1492 1491 1478 1465 1466 1467 1468 1468 1467 1466 1464 1460 1455 1450 1446 1440 1434 1429 1423
1457 1462 1467 1471 1477 1480 1483 1486 1489 1490 1495 1491 1491 1483 1476 1481 1482 1484 1487 1489 1490 1491 1489 1488 1489 1480 1473 1461 1462 1462 1466 1466 1465 1463 1462 1459 1457 1453 1448 1442 1437 1432 1427 1422
1460 1465 1468 1473 1476 1479 1483 1487 1489 1491 1489 1487 1482 1479 1476 1479 1480 1481 1484 1484 1482 1480 1480 1483 1480 1463 1457 1456 1459 1462 1463 1462 1460 1459 1458 1457 1454 1450 1446 1442 1438 1434 1429 1423
1461 1465 1469 1472 1476 1480 1482 1483 1485 1485 1485 1475 1468 1469 1471 1475 1475 1477 1480 1477 1477 1474 1470 1474 1464 1452 1450 1455 1458 1459 1459 1458 1458 1457 1456 1454 1452 1449 1446 1443 1439 1434 1431 1427
1459 1462 1467 1472 1475 1477 1478 1474 1471 1471 1465 1459 1461 1464 1467 1471 1473 1474 1476 1473 1475 1466 1469 1471 1457 1447 1452 1455 1457 1458 1457 1456 1456 1455 1454 1453 1450 1449 1447 1445 1440 1436 1434 1431
1459 1462 1465 1466 1469 1467 1460 1452 1452 1450 1451 1452 1455 1459 1464 1468 1470 1471 1471 1469 1466 1465 1467 1454 1445 1447 1451 1454 1455 1456 1455 1455 1455 1455 1455 1452 1451 1450 1448 1447 1445 1441 1438 1435
1456 1456 1457 1456 1453 1451 1443 1439 1437 1443 1444 1447 1451 1456 1459 1462 1465 1464 1462 1459 1462 1459 1454 1443 1438 1445 1449 1452 1453 1454 1454 1455 1455 1455 1455 1454 1454 1453 1452 1450 1449 1446 1441 1440
1453 1452 1446 1444 1441 1441 1441 1442 1442 1442 1443 1446 1451 1454 1455 1456 1456 1455 1455 1458 1448 1442 1435 1434 1439 1444 1447 1450 1452 1453 1453 1454 1456 1456 1456 1456 1455 1455 1453 1452 1451 1448 1445 1443
1451 1448 1443 1440 1440 1439 1440 1440 1440 1441 1442 1446 1448 1447 1448 1446 1444 1447 1444 1439 1436 1431 1432 1436 1440 1443 1445 1447 1449 1451 1452 1454 1456 1457 1458 1458 1457 1456 1455 1454 1454 1452 1449 1446
1445 1441 1439 1439 1439 1437 1438 1438 1438 1439 1441 1441 1441 1437 1434 1437 1437 1438 1434 1431 1427 1429 1432 1435 1439 1441 1443 1445 1447 1449 1452 1455 1457 1458 1458 1458 1459 1458 1457 1456 1455 1454 1452 1449